Location: Utrecht
(52.0907°N, 5.1214°E)
Time: 23:27:56
(UTC+02:00)

DIWATA 2B (PO-101) - Pass Details

Date: 08 July 2022
Orbit: 583 x 599 km, 98.0° (Epoch: 16 August)

Event Time Altitude Azimuth Distance (km) Brightness Sun altitude
Exits shadow 04:38:25 - 221° (SW) 2,105 ? -6.3°
Reaches altitude 10° 04:38:59 10° 227° (SW) 1,940 ? -6.3°
Maximum altitude 04:41:52 18° 270° (W) 1,503 ? -6.0°
Drops below altitude 10° 04:44:46 10° 313° (NW) 1,950 ? -5.7°
Sets 04:47:34 0° 333° (NNW) 2,857 ? -5.4°
